Probability
0 77 100 94 100 100 100 100 100 100 100 100 100 97 94 90 94 39 26 26 52 100 100 100 100 100 100 100 100 100 100 100 100 100 100 100 100 100 100 100 100 100 100
0 81 100 97 100 100 100 100 100 100 100 100 100 100 100 100 58 10 29 39 45 84 100 100 100 100 100 100 100 100 100 100 100 100 100 100 100 100 100 100 100 100 100
0 81 77 100 100 100 100 100 100 100 100 100 100 100 100 100 97 97 100 87 48 39 74 100 100 100 100 100 100 100 100 100 100 100 100 100 100 100 100 100 100 100 100
0 35 19 100 100 100 100 100 100 100 100 100 100 100 100 100 100 100 100 100 100 87 48 35 61 84 94 100 100 100 100 100 100 100 100 68 87 100 100 100 100 100 100
19 23 100 100 100 100 100 100 100 100 100 100 100 100 100 100 100 100 100 100 100 100 100 94 65 48 68 94 100 100 100 100 100 100 94 81 90 100 100 100 100 100 100
29 16 100 100 100 100 100 100 100 100 100 100 100 100 100 100 100 100 100 97 100 100 100 100 100 100 94 94 94 100 100 100 100 23 16 90 97 100 100 90 100 100 100
35 48 100 100 100 100 100 100 100 100 100 100 100 100 100 97 97 97 97 97 97 100 100 100 100 100 100 100 100 100 100 100 48 0 48 97 100 100 100 100 100 100 100
16 52 100 100 100 100 100 100 100 100 100 100 100 100 100 100 100 100 97 97 97 97 97 100 100 100 100 100 100 100 100 100 100 77 26 94 100 100 100 100 100 100 100
16 32 100 100 100 100 100 100 100 100 100 100 100 100 100 100 100 100 100 100 100 100 100 100 100 100 100 100 100 100 100 100 26 97 84 100 100 100 100 100 100 100 100
81 74 100 100 100 100 100 100 100 100 100 100 100 100 100 100 100 100 100 100 100 100 100 100 100 100 100 100 100 100 100 100 19 0 16 97 100 100 100 100 100 100 100
100 100 100 97 94 94 97 100 100 100 100 100 100 100 100 100 100 100 100 100 100 100 100 100 100 100 100 100 100 100 100 100 87 65 3 100 100 100 100 100 100 100 100
100 100 100 100 100 100 94 97 100 100 100 100 100 100 100 100 100 100 100 100 100 100 100 100 100 100 100 100 100 100 100 100 68 94 97 100 100 100 100 100 100 100 100
100 100 100 100 100 100 100 100 100 100 100 100 100 100 100 100 100 100 100 100 100 100 100 100 100 100 100 100 100 100 100 100 100 100 97 100 100 100 100 100 100 100 100
100 100 100 100 100 100 100 100 100 100 100 100 100 100 100 100 100 100 100 100 100 100 100 100 100 100 81 61 65 71 84 74 100 100 100 100 100 100 100 100 100 100 100
100 100 100 100 100 100 100 100 100 100 100 97 100 100 100 100 100 100 100 100 100 100 100 100 90 32 55 48 58 74 81 65 77 100 100 100 100 100 100 100 100 100 100
100 100 100 100 100 100 100 100 100 100 100 100 100 100 100 100 100 100 100 100 100 100 100 94 23 0 0 0 26 65 94 61 84 100 100 100 100 100 100 100 100 100 100
100 100 100 100 100 100 100 100 100 100 100 100 100 100 100 100 100 100 97 94 97 100 94 68 10 0 0 0 0 3 55 35 39 52 77 87 97 100 100 100 100 100 100
100 100 100 100 100 100 100 100 100 100 100 100 100 100 100 100 100 100 97 97 87 90 81 29 0 0 0 0 0 3 16 13 0 0 45 48 55 97 97 100 100 100 100
100 100 100 100 100 100 100 100 100 100 100 97 97 97 90 81 68 97 90 87 94 84 77 77 45 13 16 26 61 71 55 32 19 6 32 23 45 90 94 94 97 100 100
100 100 100 100 100 100 100 100 100 97 81 71 55 61 81 39 10 23 19 16 3 3 3 23 52 87 94 94 94 100 100 65 55 71 16 10 42 84 97 94 94 100 100
100 100 100 100 100 100 100 90 74 19 6 0 0 6 10 0 10 19 0 0 0 0 0 0 3 3 19 42 74 90 94 97 100 100 81 65 81 90 94 100 100 97 100
100 100 100 100 100 100 97 74 16 0 0 0 0 6 26 45 45 6 3 0 0 0 0 0 0 0 0 0 3 10 6 10 55 87 97 97 87 71 45 45 87 94 94
97 100 100 100 100 100 68 39 97 97 87 6 6 10 35 45 13 3 0 0 0 0 0 0 0 0 0 0 0 0 3 0 3 58 100 97 97 87 68 45 26 29 29
97 97 100 100 100 100 100 32 65 6 0 0 6 0 42 10 3 0 0 0 0 0 0 0 0 0 0 0 0 0 0 0 6 42 81 97 100 100 77 55 26 16 16
97 97 97 100 100 100 100 100 87 35 0 0 23 68 45 6 0 0 0 0 0 0 0 0 6 13 6 0 0 0 0 77 71 26 6 19 42 19 26 35 16 6 3
100 100 100 100 100 100 100 97 97 100 84 48 68 39 0 0 0 0 0 0 0 0 0 0 0 6 6 13 16 74 0 3 16 13 0 0 0 0 32 3 6 10 3
Height
5930 5929 5928 5927 5927 5927 5927 5926 5925 5924 5922 5920 5919 5918 5916 5915 5913 5913 5912 5910 5909 5908 5907 5905 5904 5902 5901 5899 5898 5897 5896 5895 5894 5894 5893 5892 5892 5892 5892 5891 5891 5890 5890
5931 5930 5929 5928 5928 5927 5927 5926 5925 5924 5922 5920 5919 5918 5917 5915 5914 5912 5911 5911 5910 5909 5908 5907 5905 5903 5901 5900 5898 5897 5896 5895 5895 5895 5894 5893 5893 5892 5892 5892 5892 5892 5891
5931 5930 5929 5929 5928 5927 5927 5926 5925 5924 5922 5920 5919 5917 5916 5915 5914 5912 5910 5910 5910 5909 5907 5907 5906 5905 5902 5900 5899 5897 5896 5896 5895 5895 5895 5894 5893 5893 5893 5893 5892 5892 5892
5931 5931 5930 5929 5929 5928 5927 5926 5924 5922 5921 5920 5919 5917 5916 5915 5914 5912 5910 5910 5909 5908 5907 5906 5906 5905 5903 5901 5900 5898 5897 5896 5896 5895 5895 5894 5893 5893 5893 5893 5892 5891 5891
5931 5931 5930 5929 5929 5928 5927 5926 5923 5921 5919 5918 5917 5917 5915 5913 5913 5912 5911 5910 5909 5908 5907 5906 5905 5904 5903 5901 5900 5898 5898 5896 5896 5896 5895 5894 5893 5892 5892 5892 5892 5891 5891
5930 5929 5929 5928 5928 5927 5926 5924 5922 5920 5918 5917 5915 5914 5914 5912 5911 5911 5911 5910 5909 5908 5907 5906 5903 5902 5901 5900 5899 5898 5898 5897 5896 5896 5895 5894 5893 5892 5891 5891 5892 5892 5891
5928 5927 5927 5926 5926 5925 5924 5922 5921 5919 5917 5915 5914 5913 5912 5912 5911 5909 5909 5908 5907 5906 5904 5903 5901 5899 5898 5898 5898 5897 5896 5896 5896 5895 5895 5894 5893 5892 5891 5890 5890 5891 5891
5926 5926 5925 5924 5924 5923 5922 5920 5919 5917 5916 5914 5913 5911 5910 5910 5909 5907 5906 5905 5904 5902 5901 5900 5899 5897 5896 5896 5896 5896 5895 5894 5894 5894 5893 5893 5892 5891 5890 5889 5889 5889 5890
5925 5924 5924 5923 5922 5921 5920 5918 5916 5915 5913 5912 5910 5909 5908 5906 5905 5904 5903 5901 5900 5899 5897 5897 5896 5895 5894 5894 5893 5893 5893 5892 5892 5892 5891 5891 5890 5889 5888 5888 5887 5887 5888
5923 5923 5922 5922 5921 5920 5918 5916 5915 5912 5910 5908 5907 5906 5905 5903 5901 5900 5899 5898 5896 5894 5893 5893 5892 5892 5891 5890 5889 5889 5889 5890 5889 5889 5888 5887 5888 5888 5887 5886 5885 5885 5885
5921 5921 5920 5919 5918 5917 5915 5913 5911 5909 5907 5905 5903 5902 5901 5899 5898 5896 5895 5893 5892 5890 5889 5888 5887 5888 5888 5887 5886 5885 5885 5886 5886 5885 5884 5884 5884 5885 5885 5885 5884 5883 5883
5918 5918 5916 5914 5913 5911 5909 5907 5905 5904 5902 5901 5899 5897 5896 5895 5893 5891 5890 5888 5887 5885 5884 5883 5882 5883 5883 5883 5882 5881 5880 5881 5882 5881 5880 5880 5880 5881 5881 5882 5882 5881 5880
5915 5914 5912 5909 5907 5905 5903 5900 5898 5897 5895 5894 5893 5892 5890 5888 5886 5885 5883 5882 5881 5879 5877 5877 5877 5877 5877 5877 5876 5876 5875 5875 5875 5876 5875 5876 5875 5876 5876 5877 5877 5878 5877
5910 5909 5906 5904 5901 5898 5895 5893 5891 5889 5887 5886 5885 5884 5883 5881 5879 5877 5875 5874 5873 5870 5870 5871 5870 5869 5869 5870 5869 5870 5868 5870 5869 5869 5869 5869 5869 5870 5870 5870 5872 5873 5873
5904 5901 5899 5897 5894 5891 5888 5886 5884 5882 5880 5879 5878 5877 5875 5873 5870 5869 5868 5865 5863 5861 5860 5861 5859 5857 5859 5860 5860 5861 5860 5862 5862 5863 5863 5862 5862 5863 5864 5864 5865 5867 5868
5897 5895 5893 5890 5888 5884 5881 5878 5875 5874 5873 5871 5870 5869 5867 5864 5862 5861 5859 5856 5853 5851 5851 5850 5846 5846 5848 5851 5852 5852 5853 5850 5851 5852 5854 5854 5853 5855 5858 5858 5859 5860 5862
5891 5889 5886 5884 5881 5878 5875 5873 5870 5868 5865 5863 5863 5861 5859 5857 5855 5853 5851 5849 5847 5845 5844 5842 5838 5838 5840 5841 5843 5844 5844 5843 5841 5841 5842 5844 5845 5847 5849 5851 5852 5853 5855
5885 5882 5878 5876 5872 5869 5866 5864 5862 5860 5858 5857 5855 5854 5852 5850 5849 5847 5845 5843 5841 5840 5838 5835 5831 5830 5832 5833 5836 5837 5837 5835 5833 5832 5831 5832 5834 5836 5839 5842 5843 5844 5847
5879 5876 5872 5869 5864 5861 5859 5858 5856 5854 5853 5851 5849 5848 5846 5844 5842 5841 5839 5837 5835 5833 5830 5827 5824 5822 5823 5825 5826 5827 5826 5825 5824 5823 5822 5822 5824 5828 5831 5833 5835 5836 5838
5873 5869 5866 5861 5858 5855 5853 5851 5849 5848 5846 5844 5842 5842 5840 5839 5837 5836 5834 5832 5829 5826 5823 5820 5818 5816 5816 5816 5815 5817 5817 5817 5816 5816 5816 5815 5817 5820 5823 5824 5825 5827 5830
5866 5863 5858 5855 5852 5850 5848 5846 5844 5843 5840 5838 5836 5835 5833 5832 5831 5829 5827 5825 5822 5819 5816 5813 5810 5809 5809 5808 5807 5808 5810 5810 5811 5811 5809 5808 5810 5813 5814 5815 5816 5818 5820
5858 5855 5852 5850 5847 5844 5842 5840 5838 5836 5835 5834 5832 5830 5828 5827 5825 5823 5820 5817 5814 5811 5808 5805 5802 5800 5800 5800 5800 5800 5802 5803 5805 5804 5802 5801 5802 5803 5804 5806 5807 5809 5811
5850 5847 5845 5844 5841 5839 5836 5833 5832 5831 5830 5828 5826 5825 5823 5821 5819 5816 5813 5811 5807 5804 5800 5797 5793 5790 5789 5790 5790 5791 5793 5795 5796 5796 5795 5795 5795 5795 5796 5797 5800 5801 5802
5842 5840 5838 5836 5834 5832 5830 5828 5827 5826 5824 5822 5820 5819 5817 5815 5812 5810 5807 5805 5802 5799 5795 5791 5785 5782 5780 5781 5780 5782 5784 5785 5786 5787 5788 5788 5788 5789 5790 5790 5793 5794 5795
5834 5831 5830 5828 5826 5825 5824 5823 5821 5820 5818 5816 5815 5813 5810 5808 5805 5803 5800 5798 5795 5791 5787 5783 5778 5774 5771 5771 5771 5772 5774 5776 5777 5778 5780 5780 5781 5782 5783 5784 5785 5786 5787
5827 5823 5822 5820 5818 5818 5817 5817 5815 5813 5811 5810 5808 5806 5804 5802 5799 5796 5793 5790 5788 5784 5781 5776 5770 5766 5764 5763 5763 5763 5764 5766 5768 5769 5771 5773 5774 5774 5774 5774 5776 5777 5778
Wind_Speed
4 6 7 6 5 4 5 6 6 6 7 7 8 8 8 8 8 8 8 10 11 11 10 9 9 9 8 7 4 2 2 3 5 6 6 5 4 4 6 7 8 7 9
2 2 4 4 2 1 1 2 3 4 5 5 5 5 6 6 6 6 6 6 7 8 9 8 8 7 7 6 5 4 2 1 2 3 3 4 3 3 3 5 5 4 5
1 0 1 2 1 0 1 3 3 5 6 6 5 4 3 4 5 5 4 3 3 5 7 7 6 6 5 5 4 4 3 2 1 0 1 1 2 2 2 3 4 4 3
3 3 1 1 1 3 4 6 6 7 7 7 6 5 4 4 5 6 5 4 3 4 6 8 7 6 4 2 2 3 3 3 2 0 1 1 2 2 2 2 2 3 5
3 4 3 4 5 6 7 8 9 8 6 5 5 6 5 5 5 5 6 5 3 4 6 9 9 9 6 4 2 2 1 2 2 1 1 3 4 4 4 3 3 2 4
3 3 4 5 6 6 6 7 8 7 5 4 4 6 7 6 6 6 6 6 6 7 11 12 10 11 10 8 6 6 4 3 2 2 1 2 3 5 7 6 5 4 4
3 3 3 3 4 5 6 7 7 7 6 6 6 6 7 7 7 7 8 11 12 13 13 11 9 9 8 8 9 9 8 7 7 6 4 2 2 5 8 9 10 8 6
3 3 3 3 4 5 6 7 8 8 8 8 8 8 8 8 10 11 14 16 15 15 13 12 12 10 7 7 9 11 12 12 11 10 9 7 6 4 5 8 11 12 11
4 4 5 6 8 9 10 10 10 11 11 11 11 11 12 14 16 16 16 18 18 18 17 16 15 14 12 10 11 13 14 15 15 15 14 13 11 9 7 7 10 13 14
10 11 11 12 13 14 15 16 16 17 17 17 17 17 18 19 20 20 21 21 20 20 19 19 19 19 18 16 14 14 14 15 16 17 18 19 17 15 13 10 10 11 14
18 19 21 22 23 24 24 24 24 22 23 23 22 22 24 25 25 25 25 26 26 26 25 24 25 24 23 22 20 18 17 17 19 18 20 21 21 20 19 16 13 12 12
24 23 24 26 28 29 30 31 31 30 30 30 30 30 30 31 31 31 30 31 31 32 32 31 31 30 29 28 27 25 24 23 24 24 23 23 24 23 22 21 18 16 15
28 28 28 30 32 33 33 33 34 35 36 36 36 36 35 36 35 35 35 36 37 38 38 37 36 36 35 36 35 33 32 29 29 29 29 27 27 26 24 23 22 21 19
31 32 32 35 36 37 37 37 37 37 38 39 39 39 40 41 41 41 41 41 42 44 43 41 41 42 41 42 43 41 39 34 35 35 33 32 30 29 27 25 24 24 24
35 35 35 35 36 38 39 40 40 40 40 40 40 41 43 44 46 45 45 45 46 48 48 45 47 50 51 46 44 42 43 43 40 38 37 35 34 32 31 29 25 24 26
37 35 33 32 34 37 39 41 41 38 37 36 35 35 37 39 41 40 39 40 41 42 42 42 45 52 51 38 35 38 35 38 43 42 43 41 36 34 33 31 28 29 29
35 34 33 33 35 36 37 38 38 36 36 37 37 36 35 35 34 32 32 33 34 34 35 37 40 41 35 32 33 33 28 28 28 34 42 43 40 37 34 33 30 30 33
32 33 37 37 35 34 35 34 35 35 36 37 36 35 34 33 31 31 31 30 31 31 35 37 38 39 35 31 33 33 29 33 28 31 34 37 38 38 36 33 31 31 33
33 35 37 36 32 32 33 32 34 34 34 34 32 30 30 30 28 28 28 28 30 31 33 36 37 37 33 31 32 31 29 30 30 31 29 31 35 37 37 37 32 32 31
36 33 34 29 26 27 28 29 31 30 29 28 30 30 29 27 25 24 25 26 27 30 32 36 38 37 33 30 29 28 28 28 28 30 28 28 31 36 39 41 34 33 32
35 34 28 25 24 26 27 26 25 25 24 23 24 26 24 21 20 21 21 21 23 26 30 34 38 39 36 33 31 29 28 27 27 27 29 30 31 35 40 41 36 35 33
36 33 28 27 27 26 23 21 20 20 19 19 21 21 18 16 17 17 17 19 22 26 28 32 36 38 37 36 35 33 29 28 26 26 29 32 34 35 37 38 37 35 36
35 31 28 27 25 22 21 21 19 17 17 18 19 18 17 17 17 16 16 18 22 26 30 33 36 37 37 36 36 34 32 29 29 27 27 30 33 35 34 32 33 33 33
30 28 28 30 28 24 24 23 21 20 21 21 21 20 19 17 16 17 17 19 23 25 29 32 35 35 35 35 36 35 34 31 31 29 28 28 29 31 33 33 33 33 32
29 32 34 34 30 27 26 27 26 25 25 26 27 26 24 22 21 20 21 22 24 26 29 31 30 32 34 34 34 35 34 33 32 32 30 30 31 33 34 34 34 33 35
30 32 33 33 32 29 28 29 28 30 31 31 32 32 30 27 24 21 21 23 23 26 30 32 32 32 33 32 31 32 34 35 34 34 34 32 31 33 35 37 36 34 36
Wind_Direction
102 99 98 94 90 82 66 47 39 40 42 43 45 48 59 70 76 74 76 77 72 67 59 53 57 59 52 45 38 31 42 47 43 54 53 58 75 97 104 95 91 85 85
138 130 110 104 102 74 18 353 356 1 2 359 5 24 44 48 52 66 73 75 72 66 60 52 50 54 54 51 44 28 3 2 33 47 62 67 75 99 130 133 125 111 99
57 251 136 134 133 318 301 298 306 319 323 324 330 339 15 23 15 19 25 40 52 47 44 42 39 42 45 49 59 50 31 10 335 342 56 77 93 113 154 169 176 188 179
353 319 313 215 264 283 292 292 292 302 310 314 319 317 323 346 348 348 344 344 2 20 18 13 6 5 3 10 60 76 57 46 37 357 190 205 190 161 173 194 192 203 213
330 315 311 300 291 288 292 295 297 304 308 309 312 308 301 310 319 326 326 332 345 8 359 347 339 331 316 288 243 195 143 92 82 100 176 203 215 205 191 203 215 200 196
305 308 304 307 305 300 295 298 301 305 299 287 293 295 295 299 307 320 322 331 334 341 340 335 326 315 299 270 245 231 223 221 216 185 157 187 217 230 217 214 220 207 183
281 298 306 313 310 300 289 289 293 295 287 277 281 286 294 306 315 324 326 327 323 323 329 336 340 327 305 270 251 245 244 242 242 234 226 220 239 250 233 228 221 219 207
259 260 280 287 280 278 282 283 284 286 285 283 279 275 272 281 293 302 311 315 315 315 321 330 333 331 322 295 273 260 255 254 249 248 245 243 250 260 258 238 230 228 226
260 278 284 278 268 265 269 275 276 275 280 285 280 270 270 281 289 295 301 302 303 306 309 310 313 312 304 298 291 279 268 262 256 250 251 248 248 252 253 252 242 236 233
281 287 286 283 281 277 274 275 275 271 274 278 280 273 269 273 281 287 290 287 285 287 291 294 295 297 297 293 288 280 274 265 257 250 251 252 251 249 250 250 247 242 235
291 291 290 289 288 285 281 278 275 272 273 274 275 274 274 275 277 280 282 281 280 278 276 278 280 281 284 285 285 278 271 270 267 256 251 253 252 250 250 249 247 247 238
298 295 290 287 287 286 282 277 276 275 274 274 273 274 277 279 278 278 280 280 280 278 276 275 277 278 278 280 279 275 269 268 269 267 260 254 253 251 250 251 249 251 248
297 295 290 288 287 286 282 279 277 276 276 276 277 278 278 276 275 275 275 276 277 276 274 275 277 276 277 277 276 273 268 267 266 266 263 256 253 253 250 248 249 252 253
301 298 292 291 290 288 285 283 280 276 274 273 273 274 276 276 274 273 275 277 278 276 274 274 275 273 274 277 278 275 269 265 266 264 259 255 251 249 249 248 248 251 255
303 300 296 294 290 287 285 284 283 281 280 279 277 276 276 275 276 278 280 280 279 277 275 272 268 263 264 272 271 275 277 260 259 265 262 254 249 248 248 249 248 249 252
299 296 294 292 287 285 285 284 284 284 284 282 280 280 280 280 280 282 282 281 281 280 282 280 276 268 261 271 274 276 278 272 267 259 257 253 247 244 245 248 250 249 250
294 295 295 294 286 281 280 279 280 282 281 280 281 281 280 280 281 284 284 285 285 284 284 287 285 285 279 279 281 287 284 278 290 279 262 257 252 245 242 243 244 245 249
296 297 298 297 291 283 279 275 274 275 276 278 282 284 285 286 288 292 294 294 294 293 293 291 287 289 294 288 280 276 271 273 275 275 263 255 249 243 240 240 240 243 248
296 300 299 298 290 283 281 276 274 278 279 278 278 282 287 290 294 299 300 301 301 300 297 294 293 291 291 286 279 275 272 267 262 267 263 250 241 240 246 247 241 241 244
297 303 303 296 286 279 278 276 277 281 283 284 275 276 285 289 293 296 298 301 301 300 297 292 289 288 287 283 279 276 271 266 264 264 260 251 244 245 252 254 249 245 240
298 304 300 290 288 286 285 283 284 283 282 283 282 281 283 288 295 298 300 305 305 302 296 290 286 282 280 277 276 273 270 267 264 262 259 254 248 247 250 253 249 249 248
299 301 293 291 293 290 284 280 279 281 281 279 275 274 277 291 305 307 311 319 322 317 307 294 286 281 276 271 269 266 266 265 264 261 256 252 249 248 249 248 248 248 251
296 294 287 287 292 286 279 277 275 275 278 282 281 279 280 291 303 314 316 325 327 326 321 308 293 285 279 274 270 267 263 262 262 262 261 257 252 252 252 251 253 254 254
295 294 293 293 292 285 280 280 281 282 283 282 280 277 278 286 291 294 304 321 328 328 328 319 295 288 283 276 270 268 266 262 259 261 262 260 257 255 256 256 258 258 257
292 296 298 297 290 283 282 287 286 284 281 279 278 277 276 280 285 293 296 306 326 332 331 329 309 291 285 278 272 267 266 265 261 257 260 264 261 258 256 256 257 256 256
291 294 295 294 290 286 287 289 287 285 284 283 283 281 279 282 287 299 309 307 319 330 334 330 319 299 287 281 275 268 265 264 263 258 255 259 263 260 258 258 258 257 258